User: anonymous   Login
Location: Bittkow
(50.3000°N, 19.0000°E)
Time: 02:40:01
(UTC+00:00)
Language:

CZ-2D R/B - Orbit

View from above orbital plane
View from above orbital plane
View from above satellite
View from above satellite

Ground track
Ground track

The orbit data is extracted from the following two-line orbital elements,

1 36597U 10027B   20334.63108807  .00000491  00000-0  54216-4 0  9991
2 36597  97.8919 292.2900 0062142 154.9342 205.4915 14.90757134568233
Epoch (UTC): 29 November 2020 15:08:46
Eccentricity: 0.0062142
inclination: 97.8919°
perigee height: 552 km
apogee height: 639 km
right ascension of ascending node: 292.2900°
argument of perigee: 154.9342°
revolutions per day: 14.90757134
mean anomaly at epoch: 205.4915°
orbit number at epoch: 56823

The dashed part of the orbit path shows where the satellite is in the earth's shadow,  

DLR